Wind_Speed
4 4 4 4 4 4 4 4 4 5 5 5 6 7 8 9 10 10 11 12 13 13 13 12 11 11 11 11 10 10 11 10 9 8 7 6 5 5 4 4 4 3 3
4 4 4 5 4 4 4 4 4 5 6 6 7 7 8 9 10 11 11 12 13 13 13 13 13 12 12 13 12 11 11 11 10 9 8 7 7 6 5 5 5 4 4
4 4 5 4 4 4 4 4 5 5 6 7 7 8 9 9 10 11 11 12 12 13 13 13 13 13 13 14 14 13 12 12 11 11 10 9 8 7 6 6 5 5 4
4 4 4 4 4 4 4 4 5 6 7 7 8 8 9 10 10 11 11 12 12 13 13 13 13 14 14 14 15 14 14 13 12 12 11 10 9 8 7 6 6 5 5
4 4 3 3 3 3 4 4 5 6 7 7 8 8 9 10 11 11 12 12 13 13 13 14 14 14 14 14 15 15 15 15 14 13 12 11 10 9 8 7 6 6 6
4 4 3 2 2 3 4 5 6 6 7 8 8 9 10 11 11 12 13 13 13 14 14 14 14 14 14 14 14 15 15 16 15 14 13 13 12 10 9 8 7 7 6
4 3 3 3 3 4 5 5 6 7 8 9 9 10 10 11 11 12 12 13 13 13 13 14 14 14 14 15 15 15 15 16 16 15 14 14 13 11 11 9 9 7 6
3 4 4 4 4 5 5 6 6 7 8 9 10 10 11 11 11 11 12 12 12 12 13 13 14 14 14 15 16 16 16 16 16 16 16 15 14 13 12 11 10 9 8
4 4 4 4 4 5 6 6 7 8 9 10 10 10 10 11 11 11 12 12 12 13 13 13 13 14 14 15 16 16 16 16 16 16 16 17 16 15 14 12 11 10 9
4 3 3 4 4 5 5 6 7 8 9 9 10 10 11 12 12 12 13 13 13 13 14 14 14 14 14 15 15 16 17 17 16 16 16 16 17 16 15 14 13 11 10
4 4 4 4 5 5 6 7 8 9 9 10 11 11 12 12 12 13 13 13 13 14 14 14 14 14 14 15 15 16 17 17 17 16 16 16 17 16 15 15 14 12 11
4 4 4 4 4 5 6 7 8 9 10 10 11 12 12 13 13 13 13 13 14 14 14 14 14 14 14 15 15 15 16 17 17 17 17 17 17 17 16 15 15 14 12
5 4 4 3 4 5 6 7 8 9 10 11 11 12 13 14 14 14 13 14 14 14 14 14 14 14 14 13 14 14 15 16 17 17 17 18 18 17 17 16 16 14 13
4 4 3 3 5 6 7 7 8 9 10 11 12 13 13 14 14 14 14 15 15 15 15 14 13 13 13 13 13 14 14 15 17 17 18 18 18 18 18 17 17 15 14
4 4 4 4 5 6 7 7 8 10 11 11 12 13 14 14 14 15 15 15 15 15 15 14 13 13 13 13 13 14 14 15 16 17 17 18 19 19 18 18 18 17 16
4 4 4 4 5 6 7 8 9 10 11 12 13 14 14 15 15 16 16 16 16 16 15 14 14 13 12 12 13 14 14 15 16 16 17 18 19 19 19 19 19 18 17
4 4 4 4 5 6 8 8 9 10 11 12 14 14 15 16 16 16 16 16 16 16 16 15 14 13 12 12 12 13 13 14 15 16 17 18 19 20 20 21 20 19 18
4 4 4 5 6 7 8 9 9 10 12 13 14 15 15 16 16 17 17 17 17 16 16 15 14 13 12 12 12 12 12 13 15 15 16 17 18 19 20 21 22 21 19
5 4 4 5 6 7 8 9 9 10 11 12 13 14 15 16 17 17 17 17 17 17 16 15 14 13 12 12 11 11 11 11 13 14 15 17 18 18 20 21 22 22 20
5 4 5 6 6 7 8 8 9 10 11 12 13 14 15 16 16 17 17 17 17 17 17 16 14 14 13 12 11 11 11 11 11 13 14 16 16 17 19 21 22 22 21
4 4 5 6 6 7 7 8 9 10 11 12 13 14 15 16 16 17 17 17 18 17 16 16 14 14 13 12 11 10 10 11 11 12 14 15 16 17 18 20 21 22 22
4 5 5 6 7 7 7 8 9 10 11 12 13 14 15 16 16 17 17 17 18 17 17 16 14 14 13 11 10 10 10 10 11 12 13 14 15 16 18 19 20 21 22
4 5 5 6 7 8 8 8 9 10 10 12 13 14 15 15 16 16 17 17 18 18 17 16 15 14 13 11 10 9 8 9 10 11 12 13 14 16 18 19 19 20 21
4 5 5 6 7 7 8 8 9 10 10 12 13 14 14 15 16 16 17 17 18 18 18 17 15 14 13 12 10 8 8 8 8 10 11 13 14 16 18 18 19 20 20
5 5 6 6 7 8 8 8 9 9 10 12 13 13 14 15 15 16 17 17 17 18 18 17 16 15 14 12 10 9 8 8 8 8 10 12 14 15 17 19 19 19 20
5 6 6 7 7 7 7 8 9 10 10 11 12 13 14 14 15 16 17 17 17 17 18 17 17 16 14 13 10 9 8 8 7 7 8 10 13 15 16 18 19 19 20
Wind_Direction
264 265 270 274 274 277 284 290 295 299 303 299 291 285 287 287 284 284 281 280 277 273 273 270 270 270 266 261 260 257 254 254 258 260 261 260 261 267 275 275 264 248 241
265 267 271 273 275 275 281 293 298 303 307 305 298 292 291 288 289 287 285 285 282 278 274 268 267 267 266 261 258 258 253 251 254 256 257 257 255 260 268 269 263 252 237
270 270 272 273 279 282 290 296 300 308 311 309 304 300 299 296 294 292 288 286 286 283 279 274 269 265 264 262 258 256 254 252 253 253 253 253 253 254 258 263 259 247 228
279 279 277 276 281 284 294 299 302 311 316 314 312 308 304 303 300 294 291 288 288 288 285 280 275 267 265 262 259 254 252 253 253 252 251 250 250 251 252 258 256 243 232
280 279 271 271 279 292 301 310 312 317 320 320 318 316 308 303 300 297 296 294 291 290 288 285 281 274 267 263 260 255 253 251 250 251 249 247 246 247 247 252 250 240 235
284 279 274 282 299 310 315 318 321 322 324 324 322 319 316 311 306 301 296 295 294 292 288 285 282 277 271 265 261 256 254 251 247 247 247 245 243 242 242 245 245 239 235
282 278 291 309 311 313 316 319 324 328 328 326 323 320 318 316 312 307 304 300 297 295 291 286 283 278 272 266 261 259 255 253 247 244 244 244 243 240 239 241 241 240 235
269 275 294 306 309 312 314 316 322 326 326 326 326 325 324 321 319 315 313 310 305 301 297 290 284 278 273 266 261 260 256 252 248 245 243 243 242 240 238 238 238 236 236
270 278 295 302 307 312 318 320 323 327 328 329 331 331 332 330 325 320 316 314 310 306 302 296 289 280 273 268 263 260 256 254 251 245 243 241 240 239 237 235 234 234 234
272 285 295 304 308 312 321 327 332 335 335 336 336 335 335 333 329 325 320 316 313 309 304 299 292 284 276 270 265 261 257 254 252 245 241 240 237 237 236 234 232 231 231
274 286 300 313 318 324 330 335 338 339 340 340 339 337 336 335 332 328 322 318 315 311 305 300 294 286 279 273 267 263 258 256 249 245 242 238 236 235 234 233 231 230 230
280 296 309 316 323 330 334 339 340 340 340 340 339 338 336 333 331 329 325 322 318 314 309 303 296 289 282 275 269 264 259 255 249 246 242 237 234 233 232 231 228 227 228
283 300 310 317 329 333 336 338 340 342 342 340 339 339 337 335 333 331 329 325 322 318 315 309 301 293 285 277 271 265 259 254 249 245 240 235 233 232 232 229 227 225 225
273 291 299 315 331 336 337 339 342 343 343 343 343 342 341 339 337 334 331 330 326 323 320 315 306 296 287 280 274 268 260 254 250 245 238 234 232 230 230 229 226 224 223
268 283 296 314 328 335 337 339 342 344 344 344 344 345 344 342 340 337 335 333 331 328 324 319 312 301 289 281 275 270 263 256 252 247 240 237 233 230 229 227 225 223 222
267 278 289 307 323 332 335 337 342 344 344 345 345 345 345 344 343 340 338 336 333 329 326 322 317 309 297 284 277 271 265 256 250 245 243 237 234 231 228 226 224 222 220
270 283 287 302 317 327 332 335 338 340 342 345 346 346 346 345 344 342 340 339 336 332 329 325 320 312 304 292 280 272 266 258 252 249 244 237 234 232 228 225 224 222 219
265 277 288 304 315 323 329 330 333 337 340 343 345 346 347 346 345 344 342 341 338 334 331 328 324 316 308 298 286 275 267 260 251 248 245 240 234 231 228 225 223 221 219
258 271 288 303 314 320 325 327 330 334 338 341 345 347 348 347 346 345 343 341 339 336 333 331 326 322 313 305 292 280 270 263 252 247 243 240 236 232 227 225 223 221 220
258 274 291 302 313 318 321 325 329 333 336 341 345 347 348 348 347 346 344 343 341 338 335 333 328 325 318 309 298 285 277 267 257 247 244 239 234 230 226 225 223 222 221
257 276 295 302 307 312 316 322 328 332 335 339 342 345 347 348 348 347 346 346 346 343 339 335 331 328 323 315 303 290 281 271 259 250 246 241 233 228 223 223 223 222 221
257 276 294 302 305 309 314 320 325 330 334 337 341 343 346 347 348 348 348 348 348 348 345 342 337 333 329 321 310 301 290 274 259 254 248 240 232 225 222 221 221 222 221
262 279 292 303 310 315 315 318 324 328 334 338 340 342 345 348 349 350 350 349 349 350 351 348 344 340 336 329 317 306 296 282 268 254 246 238 231 225 221 219 220 222 222
265 281 295 305 311 317 317 321 325 327 333 338 339 341 344 346 347 349 349 349 350 351 353 353 350 346 341 335 328 318 306 291 278 257 245 236 230 226 223 221 220 221 221
266 283 295 303 308 314 318 324 328 329 332 335 337 340 342 344 346 349 350 350 351 352 354 355 354 351 346 341 335 328 314 302 287 265 248 236 231 227 226 224 223 223 221
265 281 294 302 305 310 316 322 327 329 333 335 337 339 341 343 345 347 350 351 351 352 354 356 355 353 349 345 338 332 321 310 293 269 251 239 235 231 228 226 225 226 224
Height
5870 5870 5870 5871 5871 5871 5871 5871 5871 5870 5870 5869 5869 5869 5869 5869 5869 5869 5869 5869 5869 5869 5869 5869 5869 5869 5870 5870 5870 5871 5871 5871 5872 5872 5872 5872 5873 5873 5873 5873 5873 5873 5874
5869 5869 5870 5870 5870 5870 5870 5870 5870 5870 5869 5869 5868 5868 5868 5867 5867 5867 5867 5867 5867 5867 5866 5866 5867 5867 5867 5868 5868 5869 5869 5870 5870 5870 5871 5871 5872 5872 5872 5872 5872 5873 5873
5868 5869 5869 5869 5869 5869 5869 5869 5869 5869 5868 5868 5867 5867 5866 5866 5866 5865 5865 5865 5865 5864 5864 5864 5864 5865 5865 5866 5866 5867 5867 5868 5868 5869 5869 5870 5870 5871 5871 5871 5871 5872 5872
5868 5868 5868 5868 5869 5869 5869 5869 5868 5868 5867 5867 5866 5865 5865 5865 5864 5864 5863 5863 5862 5862 5862 5862 5862 5862 5862 5863 5863 5864 5865 5866 5866 5867 5868 5868 5869 5869 5870 5870 5871 5871 5872
5867 5867 5867 5868 5868 5868 5868 5868 5867 5867 5866 5866 5865 5864 5864 5863 5863 5862 5861 5861 5860 5860 5859 5859 5859 5859 5860 5860 5861 5861 5862 5863 5864 5865 5866 5866 5867 5868 5869 5869 5870 5870 5871
5867 5867 5867 5867 5867 5867 5867 5867 5867 5866 5865 5864 5864 5863 5862 5861 5861 5860 5859 5859 5858 5858 5857 5857 5856 5857 5857 5857 5858 5858 5859 5860 5861 5862 5863 5864 5865 5866 5867 5868 5869 5869 5870
5866 5866 5867 5867 5867 5867 5867 5866 5866 5865 5864 5863 5863 5862 5861 5860 5859 5858 5857 5856 5856 5855 5854 5854 5854 5854 5854 5854 5855 5855 5856 5857 5858 5859 5861 5862 5863 5864 5866 5866 5867 5868 5869
5866 5866 5866 5866 5866 5866 5866 5865 5865 5864 5863 5862 5861 5860 5859 5858 5857 5856 5855 5854 5853 5852 5852 5851 5851 5851 5851 5851 5852 5852 5853 5854 5855 5857 5858 5860 5861 5862 5864 5865 5866 5867 5868
5865 5865 5865 5865 5865 5865 5865 5864 5864 5863 5862 5861 5860 5859 5858 5856 5855 5854 5853 5852 5851 5850 5849 5848 5848 5848 5848 5848 5848 5849 5850 5851 5852 5854 5856 5857 5859 5860 5862 5863 5865 5866 5867
5864 5864 5864 5865 5865 5864 5864 5864 5863 5862 5861 5860 5859 5857 5856 5855 5854 5852 5851 5850 5849 5847 5846 5846 5845 5845 5845 5845 5845 5846 5847 5848 5849 5851 5853 5854 5856 5858 5860 5862 5863 5864 5866
5863 5863 5863 5864 5864 5863 5863 5863 5862 5861 5860 5859 5857 5856 5855 5853 5852 5851 5849 5847 5846 5845 5844 5843 5842 5842 5841 5841 5842 5843 5844 5845 5846 5848 5850 5851 5853 5855 5857 5859 5861 5863 5864
5862 5862 5862 5863 5863 5863 5862 5862 5861 5860 5859 5858 5856 5855 5853 5852 5850 5849 5847 5845 5843 5842 5841 5840 5839 5838 5838 5838 5839 5839 5840 5841 5843 5845 5847 5848 5850 5853 5855 5857 5859 5861 5863
5861 5862 5862 5862 5862 5862 5862 5861 5861 5860 5858 5857 5855 5854 5852 5850 5849 5847 5845 5843 5841 5839 5838 5836 5835 5835 5835 5835 5835 5836 5837 5838 5839 5841 5843 5845 5847 5850 5852 5854 5856 5859 5861
5861 5861 5861 5862 5862 5861 5861 5860 5860 5859 5857 5856 5854 5853 5851 5849 5847 5845 5843 5841 5839 5837 5835 5834 5832 5832 5831 5831 5832 5832 5833 5835 5836 5837 5840 5842 5844 5847 5849 5852 5854 5856 5859
5860 5860 5861 5861 5861 5861 5860 5860 5859 5858 5857 5855 5853 5851 5849 5847 5845 5843 5841 5839 5837 5835 5833 5831 5830 5829 5828 5828 5828 5829 5830 5831 5832 5834 5836 5838 5841 5844 5846 5849 5851 5854 5856
5859 5859 5860 5860 5860 5860 5859 5859 5858 5857 5856 5854 5852 5850 5848 5846 5844 5842 5839 5837 5835 5832 5830 5829 5827 5825 5825 5824 5825 5825 5826 5827 5829 5830 5832 5835 5838 5840 5843 5846 5849 5851 5854
5858 5858 5859 5859 5859 5859 5859 5858 5857 5856 5855 5853 5851 5849 5847 5845 5842 5840 5837 5835 5833 5830 5828 5826 5824 5823 5822 5821 5821 5821 5822 5823 5825 5827 5829 5831 5834 5837 5840 5843 5846 5849 5852
5857 5857 5858 5858 5858 5858 5858 5857 5856 5855 5854 5852 5850 5848 5846 5844 5841 5838 5836 5833 5831 5828 5826 5824 5821 5820 5819 5818 5818 5818 5819 5820 5821 5823 5825 5827 5830 5833 5836 5839 5843 5846 5849
5856 5857 5857 5857 5857 5857 5856 5856 5855 5854 5853 5851 5849 5847 5845 5842 5840 5837 5835 5832 5829 5826 5824 5821 5819 5818 5816 5816 5815 5815 5816 5816 5818 5819 5821 5824 5826 5830 5833 5836 5839 5843 5846
5854 5855 5856 5856 5856 5856 5855 5855 5854 5853 5851 5850 5848 5846 5844 5841 5839 5836 5833 5831 5828 5825 5822 5819 5817 5815 5814 5813 5813 5812 5813 5814 5815 5816 5818 5820 5823 5826 5829 5832 5836 5840 5843
5853 5854 5854 5855 5854 5854 5854 5853 5853 5852 5850 5849 5847 5845 5843 5840 5838 5835 5832 5829 5826 5823 5820 5818 5815 5814 5812 5811 5810 5810 5810 5811 5812 5813 5815 5817 5819 5822 5825 5829 5833 5836 5840
5852 5853 5853 5853 5853 5853 5852 5852 5851 5850 5849 5848 5846 5844 5842 5840 5837 5834 5832 5829 5826 5823 5819 5817 5814 5812 5810 5809 5808 5808 5808 5809 5809 5810 5812 5814 5816 5819 5822 5826 5830 5833 5837
5851 5851 5852 5852 5852 5851 5851 5851 5850 5849 5848 5847 5845 5843 5841 5839 5836 5834 5831 5828 5825 5822 5819 5816 5813 5811 5809 5807 5806 5806 5806 5806 5807 5808 5809 5811 5814 5816 5820 5823 5827 5830 5834
5850 5850 5851 5851 5850 5850 5850 5849 5849 5848 5847 5846 5844 5842 5840 5838 5836 5833 5830 5828 5825 5822 5818 5815 5812 5810 5807 5806 5804 5804 5804 5804 5804 5806 5807 5809 5811 5814 5817 5821 5824 5827 5830
5849 5849 5849 5849 5849 5849 5849 5848 5847 5847 5846 5844 5843 5841 5839 5837 5835 5833 5830 5827 5824 5821 5818 5815 5812 5809 5807 5805 5803 5802 5802 5802 5802 5803 5805 5807 5809 5811 5815 5818 5820 5824 5827
5847 5848 5848 5848 5848 5847 5847 5847 5846 5845 5844 5843 5842 5840 5838 5837 5834 5832 5829 5827 5824 5821 5818 5815 5812 5809 5806 5804 5802 5801 5801 5800 5800 5801 5803 5804 5807 5809 5812 5815 5818 5821 5824